Location: Augirein
(42.9320°N, 0.9181°E)
Time: 19:58:27
(UTC+00:00)

Meteor 2-2 Rocket - Pass Details

Date: 20 June 2021
Orbit: 853 x 928 km, 81.3° (Epoch: 31 July)

Event Time Altitude Azimuth Distance (km) Brightness Sun altitude
Rises 00:48:58 0° 351° (N) 3,584 8.6 -22.6°
Reaches altitude 10° 00:51:28 10° 354° (N) 2,640 7.7 -22.5°
Maximum altitude 00:57:31 73° 79° (ENE) 971 4.5 -22.2°
Enters shadow 01:00:06 36° 155° (SSE) 1,433 5.0 -22.1°
